• In Latvia
  • List of Countries
  • For 7 days
  • Water Temperature
  • Satellite Maps
  • Weather Map
  • Weather Widgets
  • user-avatar
    Login

    Hourly Weather Preston

    Today, 25 November, Saturday

    Time Temperature Precipitation Wind Pressure Humidity
    00:00 +3°C° 0.1 mm 4 mps 755 mmHg 74%
    01:00 +1°C° 0.3 mm 4 mps 755 mmHg 74%
    02:00 +1°C° 0.3 mm 4 mps 756 mmHg 74%
    03:00 +1°C° 0.3 mm 4 mps 756 mmHg 74%
    04:00 +1°C° 0.4 mm 4 mps 756 mmHg 75%
    05:00 +1°C° 0.4 mm 5 mps 756 mmHg 75%
    06:00 +1°C° 0.4 mm 5 mps 756 mmHg 76%
    07:00 +1°C° 0.3 mm 5 mps 757 mmHg 75%
    08:00 +1°C° 0.3 mm 5 mps 757 mmHg 75%
    09:00 +1°C° 0.3 mm 5 mps 758 mmHg 75%
    10:00 +2°C° 0.3 mm 6 mps 758 mmHg 72%
    11:00 +3°C° 0.3 mm 6 mps 759 mmHg 69%
    12:00 +3°C° 0.3 mm 7 mps 759 mmHg 66%
    13:00 +3°C° 0.2 mm 7 mps 760 mmHg 68%
    14:00 +3°C° 0.2 mm 7 mps 760 mmHg 69%
    15:00 +3°C° 0.2 mm 7 mps 760 mmHg 71%
    16:00 +2°C° 0.3 mm 7 mps 760 mmHg 72%
    17:00 +2°C° 0.3 mm 6 mps 761 mmHg 74%
    18:00 +2°C° 0.3 mm 6 mps 761 mmHg 75%
    19:00 +2°C° 0.3 mm 6 mps 762 mmHg 76%
    20:00 +1°C° 0.3 mm 6 mps 762 mmHg 77%
    21:00 +1°C° 0.3 mm 6 mps 762 mmHg 78%
    22:00 +2°C° 0.3 mm 7 mps 762 mmHg 77%
    23:00 +2°C° 0.3 mm 7 mps 763 mmHg 76%

    Tomorrow, 26 November, Sunday

    Time Temperature Precipitation Wind Pressure Humidity
    00:00 +2°C° 0.3 mm 7 mps 763 mmHg 76%
    01:00 +2°C° 0.3 mm 7 mps 763 mmHg 76%
    02:00 +2°C° 0.3 mm 7 mps 763 mmHg 77%
    03:00 +2°C° 0.3 mm 7 mps 764 mmHg 78%
    04:00 +2°C° 0.2 mm 7 mps 764 mmHg 78%
    05:00 +2°C° 0.2 mm 7 mps 764 mmHg 78%
    06:00 0°C° 0.2 mm 7 mps 764 mmHg 78%
    07:00 +2°C° 0.2 mm 7 mps 765 mmHg 77%
    08:00 +2°C° 0.2 mm 6 mps 765 mmHg 77%
    09:00 +2°C° 0.2 mm 6 mps 766 mmHg 77%
    10:00 +3°C° 0.1 mm 6 mps 766 mmHg 75%
    11:00 +3°C° 0.1 mm 7 mps 766 mmHg 72%
    12:00 +4°C° 0.1 mm 7 mps 766 mmHg 70%
    13:00 +4°C° 0.1 mm 6 mps 766 mmHg 71%
    14:00 +4°C° 0.1 mm 6 mps 766 mmHg 72%
    15:00 +4°C° 0.1 mm 6 mps 766 mmHg 73%
    16:00 +3°C° 0 mm 6 mps 766 mmHg 75%
    17:00 +3°C° 0 mm 5 mps 766 mmHg 78%
    18:00 +3°C° 0 mm 5 mps 766 mmHg 80%
    19:00 +3°C° 0.7 mm 6 mps 766 mmHg 83%
    20:00 +4°C° 0.7 mm 7 mps 766 mmHg 86%
    21:00 +4°C° 0.7 mm 7 mps 765 mmHg 88%
    22:00 +5°C° 0.4 mm 8 mps 765 mmHg 87%
    23:00 +5°C° 0.4 mm 8 mps 764 mmHg 85%

    Day after tomorrow, 27 November, Monday

    Time Temperature Precipitation Wind Pressure Humidity
    00:00 +6°C° 0.4 mm 8 mps 764 mmHg 83%
    01:00 +6°C° 0.3 mm 9 mps 763 mmHg 84%
    02:00 +6°C° 0.3 mm 9 mps 762 mmHg 84%
    03:00 +6°C° 0.3 mm 10 mps 761 mmHg 85%
    04:00 +6°C° 1.1 mm 10 mps 761 mmHg 86%
    05:00 +6°C° 1.1 mm 10 mps 760 mmHg 87%
    06:00 +7°C° 1.1 mm 10 mps 760 mmHg 88%
    07:00 +6°C° 0.2 mm 9 mps 760 mmHg 85%
    08:00 +6°C° 0.2 mm 8 mps 760 mmHg 82%
    09:00 +6°C° 0.2 mm 7 mps 760 mmHg 79%
    10:00 +6°C° 0.1 mm 7 mps 760 mmHg 78%
    11:00 +6°C° 0.1 mm 7 mps 760 mmHg 76%
    12:00 +6°C° 0.1 mm 7 mps 760 mmHg 74%
    13:00 +6°C° 0.2 mm 7 mps 760 mmHg 75%
    14:00 +5°C° 0.2 mm 7 mps 759 mmHg 76%
    15:00 +5°C° 0.2 mm 7 mps 759 mmHg 77%
    16:00 +5°C° 0.2 mm 6 mps 759 mmHg 78%
    17:00 +4°C° 0.2 mm 6 mps 758 mmHg 80%
    18:00 +4°C° 0.2 mm 6 mps 758 mmHg 81%
    19:00 +4°C° 0.2 mm 6 mps 757 mmHg 82%
    20:00 +4°C° 0.2 mm 7 mps 756 mmHg 83%
    21:00 +5°C° 0.2 mm 8 mps 755 mmHg 83%
    22:00 +5°C° 1.3 mm 8 mps 754 mmHg 85%
    23:00 +5°C° 1.3 mm 8 mps 752 mmHg 86%

    28 November, Tuesday

    Time Temperature Precipitation Wind Pressure Humidity
    00:00 +5°C° 1.3 mm 9 mps 751 mmHg 87%
    01:00 +5°C° 1.3 mm 8 mps 750 mmHg 88%
    02:00 +5°C° 1.3 mm 8 mps 750 mmHg 88%
    03:00 +5°C° 1.3 mm 7 mps 749 mmHg 88%
    04:00 +4°C° 0.3 mm 7 mps 749 mmHg 85%
    05:00 +3°C° 0.3 mm 7 mps 749 mmHg 82%
    06:00 +3°C° 0.3 mm 7 mps 750 mmHg 79%
    07:00 +1°C° 0 mm 8 mps 750 mmHg 78%
    08:00 +1°C° 0 mm 8 mps 750 mmHg 76%
    09:00 +1°C° 0 mm 8 mps 751 mmHg 75%
    10:00 +2°C° 0 mm 9 mps 751 mmHg 73%
    11:00 +2°C° 0 mm 9 mps 751 mmHg 71%
    12:00 +3°C° 0 mm 10 mps 752 mmHg 68%
    13:00 +3°C° 0 mm 10 mps 752 mmHg 68%
    14:00 +3°C° 0 mm 10 mps 751 mmHg 68%
    15:00 +3°C° 0 mm 10 mps 751 mmHg 68%
    16:00 +2°C° 0.1 mm 10 mps 752 mmHg 69%
    17:00 +2°C° 0.1 mm 11 mps 752 mmHg 70%
    18:00 +2°C° 0.1 mm 11 mps 752 mmHg 71%
    19:00 +2°C° 0.1 mm 11 mps 753 mmHg 71%
    20:00 +3°C° 0.1 mm 12 mps 753 mmHg 71%
    21:00 +3°C° 0.1 mm 12 mps 754 mmHg 70%
    22:00 +3°C° 0.1 mm 11 mps 754 mmHg 71%
    23:00 +3°C° 0.1 mm 11 mps 755 mmHg 72%

    29 November, Wednesday

    Time Temperature Precipitation Wind Pressure Humidity
    00:00 +3°C° 0.1 mm 10 mps 756 mmHg 73%
    01:00 +2°C° 0 mm 9 mps 756 mmHg 74%
    02:00 +2°C° 0 mm 9 mps 757 mmHg 74%
    03:00 +2°C° 0 mm 9 mps 757 mmHg 75%
    04:00 +1°C° 0 mm 8 mps 758 mmHg 76%
    05:00 +1°C° 0 mm 8 mps 758 mmHg 77%
    06:00 +1°C° 0 mm 8 mps 758 mmHg 78%
    07:00 +1°C° 0 mm 8 mps 758 mmHg 78%
    08:00 +1°C° 0 mm 8 mps 759 mmHg 78%
    09:00 0°C° 0 mm 7 mps 759 mmHg 77%
    10:00 +2°C° 0 mm 7 mps 759 mmHg 75%
    11:00 +2°C° 0 mm 7 mps 759 mmHg 73%
    12:00 +3°C° 0 mm 7 mps 759 mmHg 71%
    13:00 +3°C° 0 mm 7 mps 760 mmHg 71%
    14:00 +2°C° 0 mm 6 mps 760 mmHg 71%
    15:00 +2°C° 0 mm 6 mps 760 mmHg 72%
    16:00 +1°C° 0 mm 6 mps 760 mmHg 74%
    17:00 +1°C° 0 mm 6 mps 761 mmHg 76%
    18:00 0°C° 0 mm 5 mps 761 mmHg 78%
    19:00 0°C° 0 mm 5 mps 761 mmHg 78%
    20:00 0°C° 0 mm 5 mps 762 mmHg 78%
    21:00 -1°C° 0 mm 4 mps 762 mmHg 78%
    22:00 -1°C° 0 mm 4 mps 762 mmHg 78%
    23:00 -1°C° 0 mm 4 mps 762 mmHg 78%

    30 November, Thursday

    Time Temperature Precipitation Wind Pressure Humidity
    00:00 -1°C° 0 mm 4 mps 762 mmHg 78%
    01:00 -1°C° 0 mm 4 mps 762 mmHg 77%
    02:00 -1°C° 0 mm 4 mps 762 mmHg 77%
    03:00 -1°C° 0 mm 4 mps 762 mmHg 76%
    04:00 -1°C° 0 mm 5 mps 762 mmHg 74%
    05:00 -1°C° 0 mm 5 mps 762 mmHg 73%
    06:00 -1°C° 0 mm 5 mps 762 mmHg 72%
    07:00 -1°C° 0 mm 5 mps 762 mmHg 71%
    08:00 0°C° 0 mm 5 mps 762 mmHg 71%
    09:00 0°C° 0 mm 5 mps 762 mmHg 70%
    10:00 +1°C° 0 mm 6 mps 762 mmHg 69%
    11:00 +2°C° 0 mm 7 mps 761 mmHg 68%
    12:00 +4°C° 0 mm 7 mps 761 mmHg 66%
    13:00 +4°C° 0.2 mm 8 mps 760 mmHg 71%
    14:00 +3°C° 0.2 mm 9 mps 760 mmHg 75%
    15:00 +3°C° 0.2 mm 10 mps 759 mmHg 79%
    16:00 +5°C° 0.5 mm 10 mps 759 mmHg 80%
    17:00 +5°C° 0.5 mm 9 mps 759 mmHg 82%
    18:00 +5°C° 0.5 mm 9 mps 759 mmHg 84%
    19:00 +5°C° 0.2 mm 8 mps 759 mmHg 83%
    20:00 +4°C° 0.2 mm 7 mps 759 mmHg 83%
    21:00 +4°C° 0.2 mm 6 mps 760 mmHg 82%
    22:00 +3°C° 0 mm 6 mps 760 mmHg 82%
    23:00 +2°C° 0 mm 5 mps 760 mmHg 81%
    Show more